Regional Weather Roundup
Issued by NWS

Home | Current Version | Previous Version | Text Only | Print | Product List | Glossary Off
Versions: 1 2 3 4 5 6 7 8 9 10 11 12 13 14 15 16 17 18 19 20 21 22 23 24 25 26 27 28 29 30 31 32 33 34 35 36 37 38 39 40 41 42 43 44 45 46 47 48 49 50

000
ASUS43 KFSD 121610
RWRSD

WEATHER ROUNDUP FOR SOUTH DAKOTA
NATIONAL WEATHER SERVICE SIOUX FALLS SD
1100 AM CDT SAT JUL 12 2014

NOTE: "FAIR" INDICATES FEW OR NO CLOUDS BELOW 12,000 FEET WITH NO
SIGNIFICANT WEATHER AND/OR OBSTRUCTIONS TO VISIBILITY.


SDZ001>005-009-010-012>017-121700-
NORTHWEST AND NORTH CENTRAL SOUTH DAKOTA

CITY           SKY/WX    TMP DP  RH WIND       PRES   REMARKS
BUFFALO          N/A     71  60  68 SE10      30.10F
FAITH            N/A     69  61  75 SE5       30.15R
MOBRIDGE       PTSUNNY   68  62  81 S5        30.07F
$$

SDZ012>016-024>037-041>051-057-063-072>074-121700-
SOUTHWEST AND SOUTH CENTRAL SOUTH DAKOTA

CITY           SKY/WX    TMP DP  RH WIND       PRES   REMARKS
RAPID CTY ARPT CLOUDY    63  60  90 SE6       30.19S
PIERRE         CLOUDY    68  61  78 SE9       30.08F
CUSTER         MOSUNNY   70  54  56 E3        30.28R
PHILIP         SUNNY     72  59  63 E8        30.13F
PINE RIDGE     CLOUDY    70  63  78 E13       30.18R
WINNER         CLOUDY    72  65  78 NE13      30.09F
$$

SDZ004>011-016>023-039-040-121700-
NORTHEAST SOUTH DAKOTA

CITY           SKY/WX    TMP DP  RH WIND       PRES   REMARKS
ABERDEEN       LGT RAIN  63  61  93 W3        30.10F
WATERTOWN      LGT RAIN  63  62  97 N7        30.09F
SISSETON         N/A     69  61  75 W6        30.07S
$$

SDZ017-020-022-023-036>040-048>070-121700-
SOUTHEAST SOUTH DAKOTA

CITY           SKY/WX    TMP DP  RH WIND       PRES   REMARKS
SIOUX FALLS    CLOUDY    74  67  78 NW5       30.05R
HURON          CLOUDY    68  64  87 N10       30.08F
CHAMBERLAIN    CLOUDY    68  64  85 NE8       30.09F
MITCHELL       CLOUDY    73  66  78 N15       30.08R
YANKTON        CLOUDY    68  66  94 CALM      30.08S
$$

ABBREVIATIONS USED IN REMARKS
   TC - TEMPERATURE IN CELSIUS
  WCI - WIND CHILL INDEX
   HX - HEAT INDEX
  VSB - VISIBILITY




USA.gov is the U.S. government's official web portal to all federal, state and local government web resources and services.